Regional Weather Roundup
Issued by NWS Grand Forks, ND

Home | Current Version | Previous Version | Graphics & Text | Print | Product List | Glossary On
Versions: 1 2 3 4 5 6 7 8 9 10 11 12 13 14 15 16 17 18 19 20 21 22 23 24 25 26 27 28 29 30 31 32 33 34 35 36 37 38 39 40 41 42 43 44 45 46 47 48 49 50
000
ASUS43 KFGF 301010
RWRFGF
PRAIRIE TO PINES  WEATHER ROUNDUP
NATIONAL WEATHER SERVICE EASTERN NORTH DAKOTA/GRAND FORKS ND
500 AM CDT TUE SEP 30 2014

 **SATELLITE DATA USED TO AUGMENT SKY COVER AT AUTOMATED STATIONS**
 *****  WEATHER ACROSS EASTERN NORTH DAKOTA  *****

CITY           SKY/WX    TMP DP  RH WIND       PRES   REMARKS
GRAND FORKS    PTCLDY    43  41  93 SE7       30.00F
GRAND FRKS AFB PTCLDY    41  40  99 SE7       29.99F
GRAND FRKS NWS   N/A     41 N/A N/A SE6         N/A
DEVILS LAKE    CLOUDY    48  41  76 SE20      29.91F
FARGO          PTCLDY    45  41  86 SE12      29.99F
WAHPETON ARPT  CLOUDY    45  41  87 SE13      29.99F
$$

 ***** WEATHER ACROSS CENTRAL AND WESTERN NORTH DAKOTA  *****

CITY           SKY/WX    TMP DP  RH WIND       PRES   REMARKS
BISMARCK       CLOUDY    54  50  86 E13       29.81F
MINOT          CLOUDY    51  47  86 E10       29.83F
JAMESTOWN      CLOUDY    48  45  89 SE15G24   29.90F
MINOT AFB      CLOUDY    51  49  95 E12       29.82F
GARRISON         N/A     53  51  93 SE12G20   29.80F
WILLISTON      LGT RAIN  53  51  93 SE9       29.76F
DICKINSON      LGT RAIN  52  51  97 E12       29.73F
HETTINGER      RAIN      52  50  93 E14       29.73F FOG
$$

 *****  OTHER AIRPORT OBSERVATIONS IN OUR AREA  *****

CITY           SKY/WX    TMP DP  RH WIND       PRES   REMARKS
WALHALLA       CLOUDY    41  41 100 SE6       29.99F
GRAFTON AIRPOR FAIR      41  41 100 SE7       30.00F
VALLEY CITY AR CLOUDY    45  45 100 SE16G22   29.93F
CANDO          CLOUDY    48  46  93 SE13      29.92F
CAVALIER APRT  FAIR      43  41  93 SE7       30.00F
GWINNER        CLOUDY    48  46  93 E17       29.94F
ROLLA          CLOUDY    46  46 100 S9        29.92F
 ***** THE ABOVE OBSERVATIONS ARE NON NWS ARE NOT QUALITY
       CONTROLLED AND MAY MIS-REPORT RAIN FOR SNOW...
$$

  *****  WEATHER ACROSS NORTHERN MINNESOTA  *****

CITY           SKY/WX    TMP DP  RH WIND       PRES   REMARKS
FLAG ISLAND    CLOUDY    45  43  93 SE8       30.09R
WARROAD        CLOUDY    43  39  87 SE12      30.08S
ROSEAU         MOCLDY    43  37  81 E6        30.06F
HALLOCK        CLEAR     43  41  93 SE9       30.02F
THF RVR FALLS  CLEAR     41  39  93 E12       30.02F
BAUDETTE       CLOUDY    43  39  86 SE8       30.10S
WASKISH        CLOUDY    45  43  93 CALM      30.09S
CROOKSTON      PTCLDY    39  37  93 SE6       30.02F
STEPHEN NDAWN    N/A     39  39 100 E5          N/A
GREENBUSH NDAW   N/A     39  39 100 E5          N/A
$$
  *****  WEATHER ACROSS CENTRAL AND WEST MINNESOTA  *****

CITY           SKY/WX    TMP DP  RH WIND       PRES   REMARKS
FOSSTON        PTCLDY    41  39  93 SE8       30.03F
BEMIDJI        CLOUDY    43  40  91 SE10      30.06S
PARK RAPIDS    CLOUDY    41  39  93 SE12      30.05F
ELBOW LAKE     CLOUDY    43  42  97 E10       30.01F
WADENA         CLOUDY    41  39  93 SE13      30.05S
DETROIT LAKES  CLOUDY    43  41  93 SE12G20   30.03F
MOORHEAD       NOT AVBL
FERGUS FALLS   CLOUDY    43  39  87 SE14      30.02F
MORRIS MN      CLEAR     45  43  93 E12       30.00F
STAPLES        CLOUDY    41  39  93 E8        30.07F
$$
  *****  WEATHER ELSEWHERE ACROSS MINNESOTA  *****

CITY           SKY/WX    TMP DP  RH WIND       PRES   REMARKS
DULUTH         CLOUDY    42  38  85 E12       30.13F
INTRNTL FALLS  CLOUDY    43  40  89 SE8       30.12S
ELY            CLOUDY    39  37  93 SE6       30.15F
CLOQUET        CLOUDY    41  37  87 E9G16     30.13F
WHEATON        CLEAR     41  39  93 E12       30.01F
BRAINERD       CLOUDY    41  39  93 SE8       30.10F
HIBBING        CLOUDY    43  39  86 E8        30.13F
ALEXANDRIA     CLOUDY    42  41  96 SE13      30.04F
SAINT CLOUD    CLOUDY    43  39  86 E10       30.09F
MINNEAPOLIS    CLOUDY    43  39  86 E9        30.10S
$$

  *****  WEATHER ACROSS SOUTH DAKOTA  *****

CITY           SKY/WX    TMP DP  RH WIND       PRES   REMARKS
SIOUX FALLS    CLOUDY    53  49  86 E15       29.91F
BROOKINGS      NOT AVBL
WATERTOWN      MOCLDY    49  46  90 SE12G25   29.91F
HURON          CLOUDY    54  50  86 SE17      29.81F
SISSETON         N/A     46  44  93 SE15G22   29.96F
ABERDEEN       CLOUDY    53  48  83 E8        29.85F
MITCHELL       CLOUDY    54  51  90 SE14G23   29.83F
PIERRE         CLOUDY    58  56  93 SE22G31   29.67F
MOBRIDGE       CLOUDY    55  50  83 E18G26    29.72F
RAPID CITY     CLOUDY    53  53 100 N17       29.57F FOG
$$

  *****  SOME WEATHER IN NEARBY STATES *****

CITY           SKY/WX    TMP DP  RH WIND       PRES   REMARKS
GLASGOW MT     CLOUDY    51  48  89 SE10      29.70F
GREAT FALLS MT CLOUDY    54  43  66 SW10      29.69S
CHEYENNE WY    CLOUDY    50  38  63 W16       29.79R
SCOTTSBLUFF NE LGT RAIN  51  50  96 W12       29.68S
OMAHA NE       MOCLDY    64  58  80 SE9       29.89F
DES MOINES IA  CLOUDY    58  54  86 E6        29.97F
DAVENPORT IA   NOT AVBL
CHICAGO IL     DRIZZLE   49  46  90 N10       30.04S
EAU CLAIRE WI  CLOUDY    43  37  79 E8        30.12S
LA CROSSE WI   CLOUDY    48  42  80 NE7       30.10F
$$

  *****  SOME NATIONAL WEATHER *****

CITY           SKY/WX    TMP DP  RH WIND       PRES   REMARKS
LA GUARDIA NY  CLOUDY    68  64  87 NE7       29.92R
RALEIGH NC     FOG       62  60  93 CALM      29.93S VSB 1/16
ATLANTA GA     CLOUDY    66  63  88 E5        29.95R
NEW ORLEANS LA PTCLDY    75  72  90 NE6       29.87R
OKLAHOMA CITY  PTCLDY    63  58  83 SE8       29.91F
ALBUQUERQUE NM CLEAR     49  36  61 SE5       30.05S
SALT LAKE CITY CLOUDY    53  47  79 E6        29.98F
LOS ANGELES CA CLEAR     65  61  87 CALM      29.87F
BOISE ID       MOCLDY    52  50  93 CALM      29.92F
SEATTLE WA     CLOUDY    56  52  86 SE5       30.03R
$$

*** WEATHER ACROSS MANITOBA...SASKATCHEWAN AND ONTARIO ***
                ***ONTARIO***

CITY           SKY/WX    TMP DP  RH WIND       PRES   REMARKS
GERALDTON      CLEAR     27  27 100 CALM      30.19S
THUNDER BAY    CLEAR     34  34 100 NW2       30.18F
SIOUX LOOKOUT  CLOUDY    37  37 100 SW6       30.15F
TORONTO        CLOUDY    61  57  88 NW5       29.87R FOG
BIG TROUT LK   CLEAR     37  36  93 W10       30.08S
PICKLE LAKE    NOT AVBL
DRYDEN         NOT AVBL
KENORA         CLOUDY    43  41  93 SE7       30.10F
$$
                *** MANITOBA***

CITY           SKY/WX    TMP DP  RH WIND       PRES   REMARKS
BRANDON        CLOUDY    48  45  87 E8        29.93F
DAUPHIN        CLOUDY    39  39 100 CALM      29.91F
ISLAND LAKE    CLOUDY    46  39  76 S7        30.02F
PILOT MOUND      N/A     43  41  93 SE9         N/A
THE PAS        CLEAR     39  37  93 SE9       29.84F
THOMPSON       CLEAR     37  37 100 S6        29.92S
WINNIPEG       PTCLDY    43  41  93 SE12      30.03F
LYNN LAKE      PTCLDY    41  37  87 S9        29.77F
CHURCHILL      CLOUDY    39  37  93 E12       29.96R
GILLAM         PTCLDY    36  36 100 S3        29.95F
$$
                ***SASKATCHEWAN***

CITY           SKY/WX    TMP DP  RH WIND       PRES   REMARKS
ESTEVAN        LGT RAIN  50  50 100 SE13      29.79F FOG
KINDERSLEY     MOCLDY    48  45  87 SE10      29.56F
LLOYDMINSTER   CLOUDY    50  45  81 SE8       29.56F
PRINCE ALBERT  CLOUDY    52  45  76 SE9       29.69F
REGINA         LGT RAIN  48  48 100 SE14      29.75F
YORKTON        CLOUDY    45  43  93 SE13      29.83  FOG
N. BATTLEFORD  CLOUDY    50  46  87 SE8       29.62F
LA RONGE       CLOUDY    52  43  71 S9        29.68F
SASKATOON      CLOUDY    52  46  82 SE14      29.66F
SWIFT CURRENT  CLOUDY    50  48  93 S20G26    29.61F
$$
NOTE: THESE ARE AUTOMATED STATIONS WITH LIMITED QUALITY CONTROL
      "FAIR" INDICATES FEW OR NO CLOUDS BELOW 12,000 FEET WITH NO
      SIGNIFICANT WEATHER AND/OR OBSTRUCTIONS TO VISIBILITY.
      SKY/WX - SKY CONDITION AND SIGNIFICANT WEATHER.
      TMP - AIR TEMPERATURE.    DP   - DEWPOINT TEMPERATURE.
      RH  - RELATIVE HUMIDITY.  PRES - PRESSURE.
      HX  - HEAT INDEX.         WCI  - WIND CHILL INDEX.
$



USA.gov is the U.S. government's official web portal to all federal, state and local government web resources and services.